When you browse on this site, cookies collect data to enhance your experience and personalize the content and advertising you see.
Visit our Privacy Policy to learn more. By continuing to use the site, you agree to this use of cookies and data.
  • Em Portugal
  • Lista de países
  • Para 7 dias
  • Temperatura da água
  • Mapas de satélite
  • Mapa do tempo
  • Widgets de tempo
  • user-avatar
    Iniciar Sessão

    Previsão horária em Maslino

    Hoje, 23 Maio, Quinta-feira

    Tempo Temperatura Precipitação Vento Pressão Humidade
    00:00 +14°C° 0 mm 0 m/s 740 mmHg 82%
    01:00 +15°C° 0 mm 1 m/s 740 mmHg 83%
    02:00 +15°C° 0 mm 1 m/s 740 mmHg 84%
    03:00 +15°C° 0 mm 1 m/s 740 mmHg 84%
    04:00 +15°C° 0 mm 1 m/s 740 mmHg 83%
    05:00 +15°C° 0 mm 1 m/s 740 mmHg 83%
    06:00 +18°C° 0 mm 1 m/s 740 mmHg 78%
    07:00 +19°C° 0 mm 1 m/s 740 mmHg 72%
    08:00 +20°C° 0 mm 2 m/s 740 mmHg 67%
    09:00 +21°C° 0 mm 2 m/s 740 mmHg 62%
    10:00 +24°C° 0 mm 3 m/s 740 mmHg 58%
    11:00 +25°C° 0 mm 3 m/s 740 mmHg 53%
    12:00 +25°C° 0 mm 3 m/s 740 mmHg 53%
    13:00 +25°C° 0 mm 3 m/s 740 mmHg 53%
    14:00 +26°C° 0 mm 4 m/s 740 mmHg 53%
    15:00 +25°C° 0 mm 3 m/s 740 mmHg 56%
    16:00 +25°C° 0 mm 3 m/s 739 mmHg 60%
    17:00 +25°C° 0 mm 2 m/s 739 mmHg 63%
    18:00 +23°C° 0.1 mm 2 m/s 739 mmHg 69%
    19:00 +20°C° 0.1 mm 2 m/s 739 mmHg 74%
    20:00 +19°C° 0.1 mm 1 m/s 739 mmHg 79%
    21:00 +18°C° 0 mm 1 m/s 739 mmHg 82%
    22:00 +18°C° 0 mm 1 m/s 739 mmHg 84%
    23:00 +16°C° 0 mm 1 m/s 739 mmHg 87%

    Amanhã, 24 Maio, Sexta-feira

    Tempo Temperatura Precipitação Vento Pressão Humidade
    00:00 +16°C° 0 mm 1 m/s 739 mmHg 88%
    01:00 +15°C° 0 mm 1 m/s 740 mmHg 89%
    02:00 +15°C° 0 mm 1 m/s 740 mmHg 90%
    03:00 +15°C° 0.2 mm 1 m/s 740 mmHg 90%
    04:00 +15°C° 0.2 mm 1 m/s 740 mmHg 91%
    05:00 +15°C° 0.2 mm 1 m/s 740 mmHg 91%
    06:00 +18°C° 0 mm 1 m/s 740 mmHg 87%
    07:00 +17°C° 0 mm 0 m/s 740 mmHg 83%
    08:00 +19°C° 0 mm 0 m/s 741 mmHg 78%
    09:00 +22°C° 1.8 mm 1 m/s 741 mmHg 75%
    10:00 +23°C° 1.8 mm 1 m/s 741 mmHg 72%
    11:00 +24°C° 1.8 mm 2 m/s 741 mmHg 68%
    12:00 +23°C° 2.2 mm 2 m/s 741 mmHg 69%
    13:00 +23°C° 2.2 mm 1 m/s 741 mmHg 70%
    14:00 +23°C° 2.2 mm 1 m/s 741 mmHg 70%
    15:00 +23°C° 1 mm 2 m/s 740 mmHg 74%
    16:00 +21°C° 1 mm 2 m/s 740 mmHg 78%
    17:00 +21°C° 1 mm 3 m/s 740 mmHg 82%
    18:00 +19°C° 0.1 mm 3 m/s 740 mmHg 85%
    19:00 +18°C° 0.1 mm 3 m/s 740 mmHg 88%
    20:00 +17°C° 0.1 mm 3 m/s 740 mmHg 91%
    21:00 +17°C° 0 mm 3 m/s 740 mmHg 92%
    22:00 +16°C° 0 mm 3 m/s 740 mmHg 93%
    23:00 +14°C° 0 mm 3 m/s 739 mmHg 95%

    Depois de amanhã, 25 Maio, Sábado

    Tempo Temperatura Precipitação Vento Pressão Humidade
    00:00 +14°C° 0.2 mm 3 m/s 739 mmHg 95%
    01:00 +14°C° 0.2 mm 3 m/s 739 mmHg 96%
    02:00 +15°C° 0.2 mm 2 m/s 739 mmHg 96%
    03:00 +15°C° 0.3 mm 2 m/s 739 mmHg 95%
    04:00 +15°C° 0.3 mm 2 m/s 739 mmHg 95%
    05:00 +15°C° 0.3 mm 2 m/s 739 mmHg 94%
    06:00 +16°C° 0.1 mm 2 m/s 739 mmHg 90%
    07:00 +18°C° 0.1 mm 2 m/s 739 mmHg 86%
    08:00 +19°C° 0.1 mm 2 m/s 739 mmHg 82%
    09:00 +20°C° 0.9 mm 2 m/s 738 mmHg 78%
    10:00 +21°C° 0.9 mm 2 m/s 738 mmHg 75%
    11:00 +23°C° 0.9 mm 2 m/s 738 mmHg 72%
    12:00 +21°C° 2.1 mm 2 m/s 738 mmHg 75%
    13:00 +21°C° 2.1 mm 2 m/s 737 mmHg 78%
    14:00 +20°C° 2.1 mm 2 m/s 737 mmHg 81%
    15:00 +20°C° 0.5 mm 2 m/s 737 mmHg 82%
    16:00 +21°C° 0.5 mm 1 m/s 737 mmHg 83%
    17:00 +20°C° 0.5 mm 1 m/s 736 mmHg 84%
    18:00 +19°C° 0.1 mm 1 m/s 736 mmHg 87%
    19:00 +18°C° 0.1 mm 1 m/s 736 mmHg 90%
    20:00 +16°C° 0.1 mm 1 m/s 736 mmHg 92%
    21:00 +16°C° 0 mm 2 m/s 736 mmHg 92%
    22:00 +15°C° 0 mm 2 m/s 736 mmHg 92%
    23:00 +13°C° 0 mm 3 m/s 736 mmHg 91%

    26 Maio, Domingo

    Tempo Temperatura Precipitação Vento Pressão Humidade
    00:00 +12°C° 0 mm 3 m/s 737 mmHg 93%
    01:00 +12°C° 0 mm 3 m/s 737 mmHg 94%
    02:00 +11°C° 0 mm 3 m/s 737 mmHg 96%
    03:00 +10°C° 0 mm 3 m/s 737 mmHg 95%
    04:00 +10°C° 0 mm 3 m/s 737 mmHg 95%
    05:00 +9°C° 0 mm 3 m/s 737 mmHg 95%
    06:00 +10°C° 0 mm 3 m/s 737 mmHg 90%
    07:00 +11°C° 0 mm 3 m/s 737 mmHg 85%
    08:00 +12°C° 0 mm 4 m/s 738 mmHg 80%
    09:00 +13°C° 0 mm 4 m/s 737 mmHg 76%
    10:00 +14°C° 0 mm 4 m/s 737 mmHg 72%
    11:00 +16°C° 0 mm 5 m/s 737 mmHg 69%
    12:00 +16°C° 0.1 mm 5 m/s 737 mmHg 66%
    13:00 +17°C° 0.1 mm 5 m/s 737 mmHg 64%
    14:00 +19°C° 0.1 mm 5 m/s 737 mmHg 62%
    15:00 +17°C° 0.2 mm 5 m/s 737 mmHg 65%
    16:00 +17°C° 0.2 mm 5 m/s 736 mmHg 68%
    17:00 +17°C° 0.2 mm 5 m/s 736 mmHg 71%
    18:00 +15°C° 0.6 mm 4 m/s 736 mmHg 78%
    19:00 +14°C° 0.6 mm 4 m/s 736 mmHg 86%
    20:00 +12°C° 0.6 mm 4 m/s 736 mmHg 93%
    21:00 +11°C° 0.3 mm 4 m/s 736 mmHg 93%
    22:00 +10°C° 0.3 mm 4 m/s 736 mmHg 94%
    23:00 +8°C° 0.3 mm 4 m/s 736 mmHg 94%

    27 Maio, Segunda-feira

    Tempo Temperatura Precipitação Vento Pressão Humidade
    00:00 +7°C° 0.1 mm 4 m/s 736 mmHg 93%
    01:00 +7°C° 0.1 mm 4 m/s 736 mmHg 93%
    02:00 +7°C° 0.1 mm 4 m/s 736 mmHg 92%
    03:00 +6°C° 0 mm 4 m/s 737 mmHg 93%
    04:00 +6°C° 0 mm 5 m/s 737 mmHg 93%
    05:00 +5°C° 0 mm 5 m/s 737 mmHg 94%
    06:00 +6°C° 0 mm 5 m/s 738 mmHg 90%
    07:00 +7°C° 0 mm 6 m/s 738 mmHg 87%
    08:00 +7°C° 0 mm 6 m/s 739 mmHg 83%
    09:00 +9°C° 0 mm 6 m/s 739 mmHg 79%
    10:00 +10°C° 0 mm 7 m/s 740 mmHg 74%
    11:00 +11°C° 0 mm 7 m/s 740 mmHg 70%
    12:00 +11°C° 0 mm 6 m/s 741 mmHg 71%
    13:00 +11°C° 0 mm 6 m/s 741 mmHg 73%
    14:00 +12°C° 0 mm 5 m/s 742 mmHg 74%
    15:00 +13°C° 0 mm 5 m/s 742 mmHg 75%
    16:00 +13°C° 0 mm 4 m/s 742 mmHg 76%
    17:00 +13°C° 0 mm 4 m/s 742 mmHg 77%
    18:00 +13°C° 0 mm 3 m/s 743 mmHg 80%
    19:00 +12°C° 0 mm 3 m/s 743 mmHg 84%
    20:00 +12°C° 0 mm 2 m/s 743 mmHg 87%
    21:00 +10°C° 0 mm 2 m/s 743 mmHg 89%
    22:00 +9°C° 0 mm 2 m/s 744 mmHg 91%
    23:00 +9°C° 0 mm 2 m/s 744 mmHg 93%

    28 Maio, Terça-feira

    Tempo Temperatura Precipitação Vento Pressão Humidade
    00:00 +9°C° 0 mm 2 m/s 744 mmHg 93%
    01:00 +8°C° 0 mm 3 m/s 744 mmHg 93%
    02:00 +8°C° 0 mm 3 m/s 744 mmHg 94%
    03:00 +9°C° 0 mm 3 m/s 744 mmHg 93%
    04:00 +9°C° 0 mm 3 m/s 744 mmHg 92%
    05:00 +9°C° 0 mm 3 m/s 744 mmHg 92%
    06:00 +11°C° 0 mm 3 m/s 744 mmHg 86%
    07:00 +13°C° 0 mm 4 m/s 744 mmHg 81%
    08:00 +15°C° 0 mm 4 m/s 744 mmHg 76%
    09:00 +17°C° 0 mm 4 m/s 744 mmHg 73%
    10:00 +17°C° 0 mm 5 m/s 743 mmHg 69%
    11:00 +19°C° 0 mm 6 m/s 743 mmHg 66%
    12:00 +17°C° 0.5 mm 5 m/s 743 mmHg 73%
    13:00 +16°C° 0.5 mm 5 m/s 743 mmHg 81%
    14:00 +15°C° 0.5 mm 5 m/s 742 mmHg 88%
    15:00 +15°C° 1.8 mm 6 m/s 742 mmHg 90%
    16:00 +15°C° 1.8 mm 6 m/s 741 mmHg 91%
    17:00 +15°C° 1.8 mm 7 m/s 740 mmHg 92%
    18:00 +16°C° 0.4 mm 6 m/s 740 mmHg 92%
    19:00 +17°C° 0.4 mm 6 m/s 740 mmHg 92%
    20:00 +17°C° 0.4 mm 5 m/s 740 mmHg 91%
    21:00 +17°C° 1.6 mm 5 m/s 739 mmHg 93%
    22:00 +17°C° 1.6 mm 5 m/s 739 mmHg 94%
    23:00 +18°C° 1.6 mm 4 m/s 739 mmHg 95%
    Mostrar mais